[Iaude] MPEC T61: 2023 TQ1 [a=2.34,e=0.54,i=8.1,H=23.2]

mpec at marsden.cfa.harvard.edu mpec at marsden.cfa.harvard.edu
Fri Oct 6 20:58:24 EDT 2023


M.P.E.C. 2023-T61                               Issued 2023 October 7, 00:56 UT

     The Minor Planet Electronic Circulars contain information on unusual
         minor planets, routine data on comets and natural satellites,
         and occasional editorial announcements.  They are published
    on behalf of Division F of the International Astronomical Union by the
          Minor Planet Center, Smithsonian Astrophysical Observatory,
                          Cambridge, MA 02138, U.S.A.
			  
             Prepared using the Tamkin Foundation Computer Network

                              MPC at CFA.HARVARD.EDU
            URL https://www.minorplanetcenter.net/    ISSN 1523-6714

                                    2023 TQ1                                    


Observations:
     K23T01Q*1C2023 10 05.31167501 43 01.880-08 06 10.94         19.57GVET061703
     K23T01Q 1C2023 10 05.31707701 43 01.895-08 05 37.07         20.75GVET061703
     K23T01Q 1C2023 10 05.32247401 43 01.942-08 05 00.17         19.57GVET061703
     K23T01Q 1C2023 10 05.32787901 43 01.920-08 04 25.25         19.55GVET061703
     K23T01Q mC2023 10 05.34732301 43 02.053-08 02 13.96         19.83GVET061I52
     K23T01Q mC2023 10 05.34774801 43 02.046-08 02 11.08         19.91GVET061I52
     K23T01Q mC2023 10 05.34817601 43 02.060-08 02 08.56         19.68GVET061I52
     K23T01Q mC2023 10 05.34860201 43 02.075-08 02 05.64         19.69GVET061I52
     K23T01Q mC2023 10 05.44772801 43 02.608-07 51 02.92         19.85GVET061I52
     K23T01Q mC2023 10 05.44815301 43 02.600-07 51 00.11         19.40GVET061I52
     K23T01Q mC2023 10 05.44858001 43 02.629-07 50 57.30         19.30GVET061I52
     K23T01Q mC2023 10 05.44900401 43 02.629-07 50 55.00         19.06GVET061I52
     K23T01Q 0B2023 10 06.04788701 43 19.794-06 44 23.48         20.0 VZET061M49
     K23T01Q 0B2023 10 06.05235101 43 19.737-06 43 54.81         19.6 VZET061M49
     K23T01Q KB2023 10 06.05475 01 43 20.75 -06 44 53.0          19.7 VZET061C95
     K23T01Q 0B2023 10 06.05658001 43 19.775-06 43 27.03         19.4 VZET061M49
     K23T01Q KB2023 10 06.05793401 43 21.12 -06 44 32.5          20.1 GVET061I93
     K23T01Q KB2023 10 06.06071501 43 21.07 -06 44 13.4          19.6 GVET061I93
     K23T01Q KB2023 10 06.06330701 43 21.18 -06 43 57.3          19.8 GVET061I93
     K23T01Q KB2023 10 06.07307 01 43 20.83 -06 42 53.6          20.4 VZET061C95
     K23T01Q KC2023 10 06.24527901 43 27.06 -06 24 21.9          19.7 VuET061H21
     K23T01Q KC2023 10 06.24721801 43 27.08 -06 24 09.2          19.9 VuET061H21
     K23T01Q KC2023 10 06.24915801 43 27.08 -06 23 56.9          20.4 VuET061H21
     K23T01Q KC2023 10 06.25109701 43 27.10 -06 23 44.6          20.0 VuET061H21
     K23T01Q KC2023 10 06.25316501 43 27.09 -06 23 31.4          19.9 VuET061H21
     K23T01Q  C2023 10 06.27692001 43 29.082-06 20 54.16         19.8 GVET061654
     K23T01Q  C2023 10 06.28092901 43 29.095-06 20 28.57         19.8 GVET061654
     K23T01Q  C2023 10 06.42627401 43 31.944-06 04 48.42         19.99wXET061F51
     K23T01Q  C2023 10 06.44149101 43 29.380-06 03 24.62         19.9 GVET061654
     K23T01Q  C2023 10 06.44550101 43 29.407-06 02 59.01         19.9 GVET061654
     K23T01Q  C2023 10 06.45466601 43 31.882-06 01 48.21         19.87wXET061F51
     K23T01Q  B2023 10 06.95238 01 43 43.31 -05 10 09.7          19.2 GXET061M45
     K23T01Q  B2023 10 06.95976 01 43 43.38 -05 09 24.1                XET061M45
     K23T01Q  B2023 10 06.96410 01 43 43.36 -05 08 56.7          19.3 GXET061M45

Observer details:
654 Table Mountain Observatory, Wrightwood-PHMC.  Observers N. Evans, P. Choi,
    N. Saini, C. Zhai, R. Trahan, M. Shao.  1.0-m Reflector + CCD.
703 Catalina Sky Survey.  Observer D. Rankin.  Measurers E. C. Beshore, D.
    Fay, J. B. Fazekas, D. C. Fuls, A. R. Gibbs, A. D. Grauer, H. Groeller, J.
    K. Hogan, R. A. Kowalski, S. M. Larson, G. J. Leonard, D. Rankin, R. L.
    Seaman, F. C. Shelly, K. W. Wierzchos.  0.68-m Schmidt + 10K CCD.
C95 SATINO Remote Observatory, Haute Provence.  Observers D. Husar, K. Meo.
    Measurer D. Husar.  0.30-m f/5.8 reflector + CMO.
F51 Pan-STARRS 1, Haleakala.  Observers J. Bulger, T. Lowe, P. Minguez, A.
    Schultz, I. Smith.  Measurers K. Chambers, T. de Boer, J. Bulger, J.
    Fairlamb, H. Gao, M. Huber, C.-C. Lin, T. Lowe, E. Magnier, P. Minguez, Y.
    Ramanjooloo, A. Schultz, I. Smith, R. Wainscoat, R. Weryk.  1.8-m Ritchey-
    Chretien + CCD.
H21 Astronomical Research Observatory, Westfield.  Observer R. Holmes.
    Measurers T. Linder, R. Holmes, L. Horn.  0.81-m f/4.0 astrograph + CCD.
I52 Steward Observatory, Mt. Lemmon Station.  Observer D. Rankin.  Measurers
    E. C. Beshore, D. Fay, J. B. Fazekas, D. C. Fuls, A. R. Gibbs, A. D.
    Grauer, H. Groeller, J. K. Hogan, R. A. Kowalski, S. M. Larson, G. J.
    Leonard, D. Rankin, R. L. Seaman, F. C. Shelly, K. W. Wierzchos.  1.0-m
    prime focus + CCD.
I93 St Pardon de Conques.  Observer F. Losse.  0.40-m f/3.7 reflector + CMO.
M45 Starhopper Observatory, Sfantu Gheorghe.  Observer F. Ursache.  0.41-m
    f/7.5 reflector + CMO.
M49 IAS Remote Observatory, Hakos.  Observers D. Husar, M. Junius.  Measurer
    D. Husar.  0.25-m f/4.5 reflector + CMO.

Orbital elements:
2023 TQ1                                                 Earth MOID = 0.1025 AU
Epoch 2023 Sept. 13.0 TT = JDT 2460200.5                Veres                   
M   1.59178              (2000.0)            P               Q                  
n   0.27547102     Peri.  315.87308     +0.94833934     +0.31112896             
a   2.3392974      Node    26.18929     -0.23792860     +0.82686500             
e   0.5446759      Incl.    8.08342     -0.20986300     +0.46850084             
P   3.58           H   23.29          G   0.15           U   9                  
Residuals in seconds of arc
231005 703  0.4-  1.2+    231006 M49  0.3+  0.3+    231006 H21  0.6-  0.1-
231005 703  0.5-  1.0-    231006 M49  0.6-  0.1+    231006 654  0.2+  0.1-
231005 703  0.2-  0.2-    231006 C95  0.0   0.7-    231006 654  0.1+  0.1-
231005 703  0.8-  1.4-    231006 M49  0.2-  0.4+    231006 F51  0.0   0.0
231005 I52  0.0   0.0     231006 I93  0.1+  0.2-    231006 654  0.1-  0.0
231005 I52  0.1-  0.0     231006 I93  0.8-  0.8+    231006 654  0.1+  0.1+
231005 I52  0.1+  0.3-    231006 I93  0.6+  0.2+    231006 F51  0.0   0.0
231005 I52  0.3+  0.2-    231006 C95  0.4-  0.1+    231006 M45  0.8-  0.9-
231005 I52  0.1+  0.0     231006 H21  0.7-  0.1-    231006 M45  0.1-  1.1-
231005 I52  0.1-  0.0     231006 H21  0.5-  0.2+    231006 M45  0.5-  0.6-
231005 I52  0.3+  0.0     231006 H21  0.6-  0.1+
231005 I52  0.2+  0.6-    231006 H21  0.3-  0.0

Ephemeris:
2023 TQ1                 a,e,i = 2.34, 0.54, 8                   q = 1.0651
Date    TT    R. A. (2000) Decl.     Delta      r    Elong.  Phase     V
2023 09 07    00 03 34.8 -70 20 16   0.1209  1.0651   115.2    58.9    21.0
...
2023 09 22    01 26 55.9 -38 52 51   0.1027  1.0805   136.3    40.0    20.1
...
2023 09 30    01 39 16.0 -19 06 58   0.1116  1.1010   151.4    25.8    19.9
...
2023 10 06    01 43 20.1 -06 49 59   0.1275  1.1215   161.3    16.6    20.0
2023 10 07    01 43 44.3 -05 04 27   0.1308  1.1253   162.8    15.2    20.0
2023 10 08    01 44 04.8 -03 23 52   0.1343  1.1292   164.2    13.9    20.0
...
2023 10 14    01 45 10.0 +05 02 00   0.1586  1.1549   171.8     7.1    20.1
...
2023 10 22    01 45 18.4 +12 42 19   0.1990  1.1943   178.0     1.6    20.4
...
2023 11 06    01 46 17.0 +20 18 33   0.2964  1.2811   166.0    10.8    21.9

M. P. C. Staff               (C) Copyright 2023 MPC           M.P.E.C. 2023-T61





More information about the Iaude mailing list